Location: Mohawk View
(42.7837°N, 73.7885°W)
Time: 09:19:05
(UTC+00:00)

Cosmos 2058 Rocket - Pass Details

Date: 23 October 2021
Orbit: 610 x 639 km, 82.5° (Epoch: 05 December)

Event Time Altitude Azimuth Distance (km) Brightness Sun altitude
Rises 10:33:05 0° 11° (N) 2,895 6.6 -9.0°
Reaches altitude 10° 10:36:31 10° 40° (NE) 1,979 6.1 -8.4°
Maximum altitude 10:38:34 13° 68° (ENE) 1,780 6.4 -8.0°
Drops below altitude 10° 10:40:36 10° 96° (E) 1,967 7.4 -7.6°
Sets 10:43:59 0° 124° (SE) 2,864 7.8 -7.0°
